Wind_Speed
7 6 5 6 7 7 6 4 3 3 3 3 3 3 3 3 3 2 2 1 1 1 1 1 1 1 1 1 1 1 1 2 2 3 3 4 4 4 4 4 4 4 4 5 5 5 5 5 4 5 4 5
8 6 6 7 7 7 7 5 4 4 4 4 4 4 4 4 4 4 4 3 3 2 2 1 1 1 1 1 0 0 0 1 2 2 3 4 4 5 5 5 5 4 4 5 5 5 5 5 5 5 4 5
10 8 7 7 7 8 7 6 5 5 5 5 5 5 5 5 5 5 5 4 4 4 3 3 3 2 2 2 1 1 1 1 2 3 3 4 5 5 6 6 6 6 6 5 6 6 6 6 6 6 6 5
11 9 8 8 9 9 8 8 6 6 6 6 6 6 6 6 6 6 6 6 5 5 4 4 4 3 3 3 2 3 3 3 3 4 4 5 5 6 6 7 7 7 7 7 7 7 7 7 7 7 7 7
12 10 10 10 10 10 10 9 8 7 7 7 7 7 7 7 7 7 7 6 6 5 5 4 4 4 4 3 4 4 4 4 4 5 6 6 7 7 7 7 8 8 8 8 8 7 8 8 8 8 8 8
13 12 12 11 11 11 11 10 9 9 8 9 9 8 8 8 8 7 7 6 6 6 5 5 5 4 4 4 4 5 5 5 5 6 6 7 8 8 9 9 9 9 9 9 9 9 8 8 8 8 9 9
14 13 13 12 12 12 11 11 10 9 9 10 9 9 9 8 8 8 7 7 6 6 6 6 6 5 5 5 5 6 6 6 7 7 8 8 8 9 9 10 10 10 9 10 10 9 9 9 9 9 9 9
15 14 14 14 13 13 12 11 11 10 10 10 10 10 10 9 8 8 8 8 7 7 7 7 7 7 7 6 6 7 7 8 8 9 9 9 9 9 9 10 10 10 10 10 10 10 9 9 9 9 9 9
16 16 16 16 15 15 14 13 12 12 11 11 11 10 10 10 9 9 9 9 8 8 8 8 8 8 7 7 7 8 9 9 9 9 9 10 9 9 9 10 10 10 10 10 10 10 10 10 9 9 8 8
19 19 18 17 17 16 15 15 14 13 13 12 12 11 11 11 10 9 10 9 9 8 8 9 8 8 8 8 8 9 9 9 9 9 9 9 9 9 9 10 10 10 10 10 10 10 10 10 10 10 9 9
21 21 19 18 18 18 17 16 15 14 14 14 13 12 12 12 11 10 10 10 10 9 9 9 9 8 8 9 9 9 9 9 9 9 9 9 9 9 9 9 9 10 9 10 10 10 11 11 11 11 11 10
22 21 20 20 19 19 19 18 18 16 15 15 14 13 13 13 12 11 11 11 10 10 10 10 10 9 9 9 10 10 9 9 9 9 9 9 9 9 9 9 9 10 9 9 10 10 10 11 11 11 11 11
22 22 21 21 21 20 21 21 19 17 16 16 15 14 14 14 13 12 12 12 11 11 11 11 11 10 10 10 10 10 9 9 9 9 9 9 10 10 10 10 10 10 10 10 10 10 10 10 11 11 11 11
23 23 23 22 22 22 22 22 20 18 18 17 16 15 15 15 15 14 13 13 12 12 12 11 11 11 11 10 11 10 10 10 10 10 10 10 10 10 10 10 11 11 11 11 11 11 11 11 11 11 11 12
25 25 24 23 23 23 23 23 21 20 19 19 17 16 16 16 16 15 14 14 14 13 13 12 12 12 12 11 11 11 11 11 11 11 11 11 11 11 11 12 12 12 12 12 12 12 12 12 12 12 12 12
26 26 25 25 25 25 24 23 22 22 22 21 19 17 18 18 17 16 15 15 15 14 14 14 13 13 13 12 12 12 12 12 12 12 12 12 12 12 12 12 12 13 13 13 14 14 14 14 14 14 14 13
27 27 27 27 27 26 26 25 24 24 24 23 20 19 19 19 19 18 17 16 16 16 15 15 14 14 13 13 12 12 12 12 12 12 12 12 12 12 12 13 13 13 13 14 14 14 14 15 15 15 15 15
29 29 29 29 28 27 28 27 25 26 26 24 22 21 20 20 20 19 18 17 18 17 16 16 16 15 14 14 13 13 13 12 12 12 12 12 12 12 13 13 13 13 13 14 14 14 14 14 15 15 16 16
31 31 31 31 30 30 29 28 27 28 27 26 25 23 22 21 22 21 19 19 19 19 17 17 17 15 15 14 13 13 13 12 12 12 11 12 12 12 13 13 13 13 14 14 14 14 14 15 15 15 16 16
32 33 33 33 32 31 30 30 29 29 29 28 27 26 24 23 23 22 21 20 21 20 19 18 17 16 15 14 13 13 12 12 12 11 11 11 12 12 12 13 13 13 13 14 14 14 14 14 15 15 15 16
33 34 34 34 34 33 32 31 31 30 30 30 29 28 26 25 24 24 22 22 22 21 20 20 18 17 16 15 14 13 12 11 11 11 11 11 11 12 12 12 13 13 13 14 14 14 14 14 15 15 15 15
35 35 35 35 35 34 33 33 32 32 32 32 31 30 28 26 26 25 24 23 23 23 23 21 19 18 17 15 14 13 12 11 11 11 11 11 11 12 12 12 12 13 13 14 14 14 14 14 15 15 15 15
35 36 36 36 36 36 36 35 34 34 35 34 34 32 29 28 27 26 25 25 25 25 25 23 21 19 18 17 16 15 13 12 12 11 11 11 11 12 12 12 12 13 13 14 14 14 14 14 15 15 15 15
37 38 38 39 39 39 39 38 37 37 37 36 35 33 31 30 29 27 26 27 27 27 26 25 22 20 20 18 17 16 15 14 13 12 12 12 12 12 13 12 13 13 14 14 14 14 15 15 15 15 16 15
40 41 41 41 41 41 40 39 38 38 37 37 36 35 33 32 30 28 28 29 29 29 28 26 24 23 22 21 19 18 17 15 15 14 14 14 13 13 14 13 13 14 14 14 15 15 14 14 14 15 15 15
42 43 43 42 41 40 39 38 38 37 37 36 36 36 35 33 32 31 30 30 31 31 29 28 26 25 24 23 22 21 20 19 18 17 16 16 15 15 15 15 14 14 14 14 15 16 16 15 13 13 15 14
42 43 43 42 42 41 39 38 37 37 36 36 36 37 36 35 35 34 32 32 33 33 31 30 29 27 26 25 24 24 24 22 21 20 19 18 17 17 16 16 15 14 14 14 15 15 15 15 14 14 13 12
42 42 42 42 42 42 41 39 38 37 38 39 39 40 39 39 38 37 35 34 34 35 34 32 31 29 28 28 27 27 27 26 24 22 21 20 20 19 18 18 17 16 15 14 14 13 11 12 12 11 10 10
42 42 43 43 43 43 42 41 41 42 42 43 44 43 42 41 40 39 38 36 36 36 36 34 33 31 30 30 30 30 29 28 26 24 23 23 22 21 21 20 18 17 16 16 15 13 11 9 8 8 10 13
43 43 43 44 45 45 45 46 46 45 45 45 44 43 42 42 42 41 40 39 38 38 38 37 36 34 33 33 33 33 32 30 29 28 27 26 24 23 22 21 20 19 18 17 17 16 15 13 12 12 13 14
44 45 45 46 46 47 47 48 48 46 45 45 45 44 44 44 43 43 42 41 40 39 39 39 38 37 36 35 35 35 34 33 32 31 29 27 26 25 24 24 23 22 20 19 18 17 17 17 16 16 15 15
Wind_Direction
209 237 268 294 304 306 296 279 266 258 250 248 246 246 245 243 248 254 262 276 288 326 6 96 123 133 110 108 81 49 30 20 18 11 1 0 356 0 3 9 10 7 3 354 1 5 6 8 4 6 5 9
224 245 270 289 295 296 286 265 254 247 245 243 242 246 244 248 248 250 252 255 260 262 263 251 232 224 205 200 188 213 319 332 339 342 338 337 333 336 338 343 346 346 347 338 339 340 344 346 343 345 343 345
232 248 269 283 287 286 274 256 248 243 246 246 247 249 247 250 249 250 249 248 251 247 248 249 249 248 247 256 263 265 277 298 309 317 321 322 321 323 326 328 331 332 333 331 329 328 330 330 330 333 331 329
234 249 267 276 280 277 266 253 249 247 249 251 251 252 252 254 251 251 249 246 244 241 241 240 243 247 251 258 268 282 285 291 298 305 308 312 314 315 318 320 322 324 325 326 324 322 322 321 322 322 322 323
237 251 262 270 272 268 261 253 252 255 256 258 259 258 255 256 254 249 247 245 241 238 236 235 240 242 251 260 267 281 287 293 297 301 306 308 311 312 314 313 315 317 318 319 317 317 316 316 316 315 316 317
240 250 259 265 263 261 256 250 253 257 262 265 267 266 258 256 254 248 242 240 237 236 233 232 235 241 251 261 269 279 284 292 294 296 299 301 305 306 307 307 308 309 309 309 309 310 309 308 308 309 311 310
238 246 255 259 258 259 253 248 252 257 263 268 270 270 263 254 251 248 238 233 232 233 236 237 240 246 251 259 267 276 282 290 294 296 297 297 299 300 301 301 302 302 302 302 302 304 303 303 303 303 304 305
238 245 252 254 254 255 251 248 253 258 263 266 267 267 263 254 245 245 240 234 233 234 240 241 243 248 253 260 269 278 285 292 296 297 299 299 299 299 299 298 299 300 301 301 300 301 302 302 302 302 302 301
240 246 249 249 251 251 248 250 254 259 264 267 267 263 261 255 241 238 238 236 235 237 242 243 246 252 261 272 281 290 293 296 298 298 299 299 300 300 299 298 299 300 301 302 303 303 304 304 304 304 303 301
240 243 246 247 251 249 248 251 255 261 265 268 267 263 260 256 247 238 237 241 242 244 249 253 257 263 273 282 290 294 296 296 297 297 297 297 298 299 299 298 299 300 301 302 305 306 307 308 308 308 307 306
237 241 244 247 250 249 250 253 257 262 266 266 265 263 260 254 251 243 241 245 248 252 255 261 265 270 277 284 290 292 293 294 294 295 296 296 297 298 299 300 299 300 302 303 305 306 308 310 311 311 311 311
240 243 244 247 248 248 251 254 257 260 262 263 263 263 260 255 252 247 245 247 250 254 256 262 266 271 277 284 288 289 288 289 290 292 294 296 296 299 300 301 301 302 302 303 304 305 307 308 309 310 310 311
243 244 244 247 249 249 252 254 256 257 257 259 260 261 261 258 255 251 250 252 254 256 258 263 268 274 280 286 287 286 287 287 289 291 293 295 297 299 301 302 303 303 303 303 303 303 304 305 306 307 308 309
244 245 245 248 250 250 251 254 256 257 256 257 258 259 259 258 255 252 251 254 258 259 263 267 273 281 286 288 287 287 288 289 291 292 294 296 299 301 303 305 305 306 306 306 306 305 304 304 304 304 305 306
244 245 247 248 249 249 251 253 256 257 257 257 257 258 258 257 254 252 251 254 258 261 265 270 276 282 286 285 284 286 287 289 291 291 294 296 299 302 304 306 307 309 310 311 310 310 310 309 307 306 305 306
244 246 247 247 248 250 252 254 255 256 257 257 257 256 257 257 254 253 252 254 258 261 264 270 276 282 283 282 281 283 284 286 288 289 292 294 296 300 302 305 307 309 311 312 313 313 313 313 312 310 308 307
245 246 246 247 248 250 251 253 254 255 257 258 256 255 254 255 253 251 251 253 258 263 268 272 278 282 282 281 280 281 282 283 285 287 289 292 295 298 299 303 305 307 309 310 311 311 312 312 312 311 310 309
245 246 246 246 247 248 250 252 253 254 257 259 258 256 255 255 253 251 251 254 259 263 268 273 277 279 278 278 278 279 281 283 283 285 288 290 293 295 297 299 301 304 305 305 307 308 309 310 310 310 310 310
244 246 247 247 247 247 250 251 252 254 257 259 259 258 257 256 255 253 251 253 257 261 264 269 273 274 273 274 275 276 279 281 283 285 287 289 291 293 294 296 298 300 301 301 302 304 306 308 308 308 308 308
245 247 248 248 249 249 250 250 250 253 255 257 257 257 257 256 255 254 252 252 256 260 263 267 270 270 269 271 272 274 277 279 282 284 286 288 289 291 292 294 296 297 298 298 300 302 304 306 305 306 306 305
245 247 248 249 249 250 250 249 250 252 254 256 256 256 256 256 255 255 254 253 257 261 263 264 266 266 266 268 270 272 276 279 281 284 286 288 290 291 293 294 296 298 298 299 301 302 303 303 303 303 304 301
245 246 247 249 250 250 251 251 251 251 253 256 257 257 257 256 255 254 254 254 256 259 261 262 263 263 263 265 266 269 272 275 278 282 285 289 292 294 296 299 302 303 303 302 303 303 304 304 304 303 302 300
244 245 246 247 247 248 249 249 249 250 252 255 256 257 257 257 256 255 254 255 255 257 260 262 262 261 262 262 263 264 266 269 273 278 283 287 290 294 299 304 308 309 308 308 309 310 310 308 306 305 303 301
240 241 242 242 244 246 247 247 247 249 251 254 256 258 258 258 257 255 254 254 255 256 258 260 261 260 260 260 260 261 263 266 269 273 277 281 287 292 297 303 308 310 310 313 316 316 315 314 312 310 306 304
238 239 240 241 244 247 248 249 249 250 252 255 258 259 259 259 258 255 252 251 253 254 256 258 258 257 258 258 258 260 262 262 264 267 271 275 281 286 291 297 302 307 310 313 315 316 315 316 316 311 306 307
239 241 243 246 249 251 252 253 254 255 257 259 261 262 262 261 259 256 252 250 251 253 254 256 256 256 257 257 257 257 257 257 260 263 267 271 275 279 284 290 295 301 307 311 314 316 316 317 316 309 305 304
243 245 246 249 251 253 254 255 258 259 261 261 261 261 261 260 258 255 252 249 250 251 253 254 256 256 255 255 254 253 255 256 257 259 263 267 270 272 276 280 286 293 299 304 311 315 317 317 314 309 306 300
247 247 247 248 250 252 254 256 258 258 258 258 257 257 257 257 255 254 251 248 248 250 252 253 254 254 253 253 252 252 254 255 256 258 262 264 264 266 269 273 278 282 288 293 301 308 314 316 312 305 303 297
248 245 245 244 244 245 246 248 249 250 252 252 252 254 256 256 255 254 253 250 248 249 250 251 252 252 252 251 250 250 251 253 255 257 258 259 260 263 265 267 271 273 279 285 291 296 300 300 293 288 292 292
248 246 245 243 242 242 243 245 247 250 253 253 254 257 258 257 257 256 255 253 251 250 250 251 250 250 249 249 249 249 250 250 251 253 254 256 258 259 261 263 266 270 274 278 283 288 291 290 287 288 289 286
248 247 246 246 247 248 249 250 254 258 259 257 258 259 258 258 258 258 257 255 253 251 250 250 249 248 247 247 248 249 249 249 249 252 254 255 256 257 258 260 263 268 269 270 275 280 284 288 289 290 288 281
Height
1575 1575 1575 1576 1576 1576 1577 1577 1577 1577 1577 1577 1577 1577 1577 1577 1577 1577 1577 1577 1577 1576 1576 1577 1577 1576 1576 1576 1576 1576 1576 1575 1575 1575 1575 1575 1575 1575 1574 1575 1575 1575 1574 1574 1574 1574 1574 1574 1574 1574 1574 1574
1574 1574 1575 1575 1575 1575 1576 1576 1576 1576 1577 1577 1577 1577 1577 1577 1577 1577 1577 1576 1576 1576 1576 1576 1576 1576 1576 1576 1576 1576 1575 1575 1575 1575 1575 1575 1574 1574 1574 1574 1574 1574 1574 1574 1573 1573 1573 1573 1573 1573 1573 1573
1574 1574 1574 1574 1574 1574 1575 1575 1576 1576 1576 1576 1576 1576 1576 1576 1576 1576 1576 1576 1576 1576 1576 1576 1576 1575 1575 1575 1575 1575 1575 1575 1575 1575 1574 1574 1574 1574 1573 1573 1573 1573 1573 1573 1573 1573 1572 1572 1572 1572 1572 1572
1572 1573 1573 1573 1573 1573 1574 1574 1575 1575 1575 1575 1575 1576 1576 1576 1576 1576 1576 1576 1576 1576 1575 1575 1575 1575 1575 1575 1575 1575 1575 1575 1575 1574 1574 1574 1574 1573 1573 1573 1573 1572 1572 1572 1572 1572 1572 1572 1571 1571 1571 1571
1571 1571 1572 1572 1572 1572 1573 1573 1574 1574 1574 1574 1574 1575 1575 1575 1575 1575 1575 1575 1575 1575 1575 1575 1575 1575 1574 1574 1574 1574 1574 1574 1574 1574 1574 1573 1573 1573 1573 1572 1572 1572 1572 1571 1571 1571 1571 1571 1571 1570 1570 1570
1570 1570 1571 1571 1571 1571 1572 1572 1572 1573 1573 1573 1573 1573 1574 1574 1574 1574 1574 1574 1574 1574 1574 1574 1574 1574 1574 1574 1574 1573 1573 1573 1573 1573 1573 1573 1572 1572 1572 1572 1571 1571 1571 1571 1570 1570 1570 1570 1570 1570 1569 1569
1569 1569 1569 1569 1570 1570 1571 1571 1571 1571 1572 1572 1572 1572 1572 1573 1572 1572 1573 1573 1573 1573 1573 1573 1573 1573 1573 1573 1573 1573 1573 1572 1572 1572 1572 1572 1572 1571 1571 1571 1570 1570 1570 1570 1569 1569 1569 1569 1569 1568 1568 1568
1567 1568 1568 1568 1568 1569 1569 1570 1570 1570 1570 1570 1571 1571 1570 1571 1571 1571 1571 1571 1572 1572 1572 1572 1572 1572 1572 1572 1572 1572 1572 1572 1571 1571 1571 1571 1571 1571 1570 1570 1569 1569 1569 1569 1568 1568 1568 1568 1567 1567 1567 1567
1566 1566 1566 1567 1567 1567 1568 1568 1569 1569 1569 1569 1569 1569 1569 1569 1570 1570 1570 1570 1570 1571 1571 1571 1571 1571 1571 1571 1571 1571 1571 1571 1570 1570 1570 1570 1570 1570 1570 1569 1569 1569 1568 1568 1567 1567 1567 1566 1566 1566 1566 1565
1564 1564 1565 1565 1565 1566 1566 1567 1567 1567 1567 1568 1568 1568 1568 1568 1568 1569 1569 1569 1569 1569 1569 1569 1570 1570 1570 1570 1570 1570 1569 1569 1569 1569 1569 1569 1569 1569 1569 1568 1568 1568 1568 1567 1567 1566 1566 1565 1565 1565 1564 1564
1562 1562 1563 1563 1564 1564 1564 1565 1565 1566 1566 1566 1566 1566 1566 1566 1566 1567 1567 1567 1568 1568 1568 1568 1568 1569 1569 1569 1569 1569 1568 1568 1568 1568 1568 1568 1568 1567 1567 1567 1567 1567 1567 1566 1566 1565 1565 1565 1564 1564 1563 1563
1559 1560 1561 1561 1562 1562 1562 1563 1563 1564 1564 1564 1564 1564 1564 1565 1565 1565 1566 1566 1566 1566 1566 1566 1567 1567 1567 1567 1567 1567 1567 1567 1567 1567 1566 1566 1566 1566 1566 1566 1565 1565 1565 1565 1565 1565 1564 1564 1563 1563 1562 1562
1556 1557 1558 1559 1559 1560 1560 1560 1561 1562 1563 1562 1563 1563 1562 1563 1563 1563 1564 1564 1564 1564 1564 1565 1565 1565 1566 1566 1565 1565 1565 1565 1565 1565 1565 1565 1565 1564 1564 1564 1564 1564 1564 1564 1564 1563 1563 1563 1562 1562 1561 1561
1554 1554 1556 1556 1557 1557 1557 1558 1559 1560 1560 1560 1561 1561 1561 1561 1561 1561 1562 1562 1562 1562 1562 1563 1563 1563 1563 1564 1563 1563 1563 1563 1563 1563 1563 1563 1563 1563 1562 1562 1562 1562 1562 1562 1562 1562 1562 1562 1561 1561 1560 1560
1551 1552 1553 1554 1554 1555 1555 1556 1556 1557 1557 1558 1559 1559 1559 1559 1559 1559 1560 1560 1560 1560 1560 1561 1561 1561 1561 1562 1561 1561 1561 1561 1561 1561 1561 1561 1561 1560 1560 1560 1560 1560 1560 1560 1560 1560 1560 1560 1560 1560 1559 1559
1549 1550 1551 1551 1551 1552 1552 1553 1554 1554 1555 1556 1557 1557 1557 1557 1557 1557 1557 1557 1558 1558 1558 1559 1559 1559 1559 1559 1559 1559 1559 1559 1559 1559 1559 1559 1559 1559 1558 1558 1558 1558 1558 1558 1558 1558 1558 1558 1558 1558 1558 1558
1546 1547 1548 1548 1549 1550 1550 1550 1551 1551 1552 1553 1554 1555 1555 1554 1555 1555 1555 1555 1555 1556 1556 1556 1557 1557 1557 1557 1557 1557 1557 1558 1557 1557 1557 1557 1557 1557 1557 1557 1556 1556 1556 1556 1556 1556 1556 1555 1555 1555 1555 1555
1544 1545 1545 1546 1547 1547 1547 1548 1549 1549 1549 1550 1551 1552 1552 1552 1552 1553 1553 1553 1553 1553 1553 1554 1554 1555 1555 1555 1555 1555 1555 1555 1555 1555 1555 1555 1555 1555 1555 1555 1555 1555 1554 1554 1554 1554 1554 1554 1554 1553 1553 1553
1541 1541 1542 1543 1544 1545 1545 1545 1546 1546 1546 1547 1548 1549 1549 1549 1549 1550 1550 1550 1550 1551 1551 1551 1552 1552 1552 1553 1553 1553 1553 1553 1553 1553 1553 1553 1553 1553 1553 1553 1553 1553 1553 1552 1552 1552 1552 1552 1552 1551 1551 1551
1538 1538 1539 1539 1540 1542 1542 1543 1543 1543 1543 1544 1545 1546 1546 1547 1546 1547 1548 1548 1548 1548 1549 1549 1549 1550 1550 1550 1550 1550 1551 1551 1551 1551 1551 1551 1551 1551 1551 1551 1551 1551 1551 1551 1551 1551 1550 1550 1550 1550 1550 1549
1535 1535 1536 1536 1537 1538 1539 1539 1540 1540 1540 1540 1541 1543 1543 1544 1544 1544 1545 1545 1545 1545 1546 1547 1547 1547 1547 1547 1548 1548 1548 1548 1548 1548 1549 1549 1549 1549 1549 1549 1549 1549 1549 1548 1548 1549 1549 1548 1548 1548 1548 1547
1532 1532 1533 1533 1534 1535 1535 1536 1536 1537 1537 1537 1538 1539 1540 1541 1541 1541 1542 1542 1542 1542 1543 1544 1544 1544 1544 1545 1545 1545 1545 1545 1546 1546 1546 1546 1546 1546 1546 1547 1547 1547 1546 1546 1546 1546 1546 1546 1546 1545 1545 1545
1529 1529 1530 1530 1530 1531 1531 1532 1533 1533 1533 1533 1534 1535 1537 1537 1537 1538 1539 1539 1539 1540 1539 1540 1541 1541 1541 1542 1542 1542 1542 1543 1543 1543 1543 1543 1543 1543 1543 1544 1544 1544 1544 1544 1544 1543 1543 1543 1543 1543 1543 1542
1525 1525 1525 1526 1526 1526 1526 1527 1528 1529 1529 1529 1530 1531 1533 1533 1534 1535 1536 1536 1536 1536 1536 1537 1538 1538 1538 1539 1539 1539 1539 1540 1540 1540 1540 1540 1540 1540 1540 1541 1541 1541 1541 1541 1541 1541 1541 1541 1540 1540 1540 1540
1520 1519 1520 1520 1520 1520 1521 1523 1524 1525 1525 1526 1526 1527 1528 1529 1530 1531 1532 1532 1532 1532 1533 1533 1534 1535 1535 1535 1535 1536 1536 1537 1537 1537 1537 1537 1537 1537 1537 1538 1538 1538 1538 1538 1538 1538 1539 1539 1538 1537 1537 1537
1514 1514 1514 1515 1516 1517 1518 1519 1520 1521 1521 1522 1523 1523 1524 1525 1526 1527 1528 1528 1528 1528 1529 1530 1530 1531 1531 1532 1532 1533 1533 1534 1534 1534 1534 1534 1534 1534 1534 1535 1535 1536 1535 1535 1536 1536 1536 1536 1536 1536 1535 1535
1510 1510 1511 1512 1513 1514 1515 1516 1517 1518 1519 1519 1519 1519 1519 1520 1521 1522 1523 1524 1524 1524 1525 1526 1526 1527 1528 1528 1529 1529 1529 1530 1531 1531 1531 1531 1531 1531 1531 1532 1532 1533 1533 1533 1533 1533 1533 1533 1534 1533 1533 1532
1506 1508 1509 1510 1511 1512 1513 1514 1515 1515 1515 1514 1514 1514 1514 1515 1515 1517 1518 1519 1520 1520 1521 1521 1522 1523 1524 1524 1525 1525 1526 1526 1527 1527 1528 1528 1528 1528 1528 1528 1529 1529 1530 1530 1530 1530 1530 1531 1531 1531 1531 1530
1503 1505 1506 1507 1508 1508 1509 1509 1509 1509 1507 1507 1507 1508 1508 1509 1510 1512 1513 1514 1515 1515 1516 1517 1518 1519 1520 1520 1521 1521 1522 1523 1523 1524 1524 1524 1524 1524 1525 1525 1525 1525 1526 1526 1526 1527 1527 1528 1528 1528 1528 1528
1499 1500 1501 1501 1501 1501 1501 1501 1501 1500 1500 1501 1502 1502 1503 1504 1506 1507 1508 1509 1510 1511 1512 1512 1514 1515 1516 1516 1516 1517 1518 1519 1519 1519 1520 1520 1520 1520 1521 1521 1521 1521 1521 1522 1522 1523 1523 1524 1524 1524 1525 1525
1495 1495 1496 1496 1495 1495 1495 1494 1494 1495 1496 1497 1498 1499 1499 1500 1501 1502 1503 1504 1505 1506 1507 1508 1509 1510 1511 1512 1512 1512 1513 1514 1515 1515 1516 1516 1516 1517 1517 1517 1517 1517 1517 1517 1518 1518 1519 1519 1520 1521 1521 1522